EW7833 Weather Reports


Display with metric or nautical units.
time (UTC)temp
F
wind
direction
speed
MPH
gust
MPH
rain 1hr
in
rain 24hr
in
rain mn
in
humidity
%
barometer
mb
20260902044513 70 252 0.0 0.0 0.00 0.00 0.00 92 1009.9
20260902043004 71 252 0.0 0.0 0.00 0.00 0.00 91 1010.0
20260902041501 72 252 0.0 0.0 0.00 0.00 0.00 91 1010.1
20260902040058 73 252 0.0 0.0 0.00 0.00 0.00 91 1010.2
20260902034606 73 257 0.0 0.0 0.00 0.00 0.00 91 1010.2
20260902033056 74 258 0.0 0.0 0.00 0.00 0.00 91 1010.3
20260902031559 74 250 0.0 1.0 0.00 0.00 0.00 91 1010.4
20260902030054 74 256 0.0 1.0 0.00 0.00 0.00 91 1010.5
20260902024556 73 256 0.0 1.0 0.00 0.00 0.00 89 1010.5
20260902023059 71 250 0.0 0.0 0.00 0.00 0.00 92 1010.3
20260902021555 71 250 0.0 0.0 0.00 0.00 0.00 92 1010.3
20260902020053 72 250 0.0 0.0 0.00 0.00 0.00 91 1010.4
20260902014556 72 250 0.0 0.0 0.00 0.00 0.00 91 1010.4
20260902013056 73 250 0.0 0.0 0.00 0.00 0.00 90 1010.3
20260902011553 73 250 0.0 0.0 0.00 0.00 0.00 90 1010.3
20260902010053 74 250 0.0 0.0 0.00 0.00 0.00 89 1010.1
20260902004557 74 250 0.0 0.0 0.00 0.00 0.00 88 1010.1
20260902003126 75 250 0.0 0.0 0.00 0.00 0.00 86 1009.9
20260902001550 77 250 0.0 0.0 0.00 0.00 0.00 83 1009.9
20260902000049 78 250 0.0 1.0 0.00 0.00 0.00 83 1009.9
20260901234548 79 245 0.0 2.0 0.00 0.00 0.00 81 1009.9
20260901233047 80 243 1.0 3.0 0.00 0.00 0.00 79 1010.0
20260901231558 81 243 0.0 1.0 0.00 0.00 0.00 82 1010.0
20260901230045 82 234 0.0 1.0 0.00 0.00 0.00 77 1010.0
20260901224549 82 240 0.0 1.0 0.00 0.00 0.00 79 1010.0
20260901223042 82 248 0.0 2.0 0.00 0.00 0.00 79 1010.2
20260901221543 83 243 0.0 1.0 0.00 0.00 0.00 77 1010.3
20260901220044 83 246 0.0 2.0 0.00 0.00 0.00 77 1010.3
20260901214542 83 252 0.0 2.0 0.00 0.00 0.00 75 1010.3
20260901213038 83 246 1.0 3.0 0.00 0.00 0.00 78 1010.3
20260901211536 83 243 1.0 2.0 0.00 0.00 0.00 78 1010.4
20260901210035 82 240 1.0 3.0 0.00 0.00 0.00 80 1010.5
20260901204534 82 245 1.0 3.0 0.00 0.00 0.00 82 1010.6
20260901203038 82 240 2.0 3.0 0.00 0.00 0.00 83 1010.6
20260901201534 82 254 2.0 4.0 0.00 0.00 0.00 80 1010.8
20260901200031 82 247 2.0 3.0 0.00 0.00 0.00 80 1011.0
20260901194533 83 263 2.0 5.0 0.00 0.00 0.00 76 1011.2
20260901193031 82 255 2.0 4.0 0.00 0.00 0.00 80 1011.4
20260901191536 82 251 2.0 4.0 0.00 0.00 0.00 76 1011.5
20260901190028 83 248 2.0 5.0 0.00 0.00 0.00 78 1011.6
20260901184527 83 254 1.0 3.0 0.00 0.00 0.00 78 1011.8
20260901183024 82 248 1.0 4.0 0.00 0.00 0.00 78 1011.8
20260901181523 82 250 0.0 3.0 0.00 0.00 0.00 79 1012.1
20260901180028 82 243 0.0 3.0 0.00 0.00 0.00 80 1012.2
20260901174520 81 246 0.0 1.0 0.00 0.00 0.00 81 1012.2
20260901173015 80 238 0.0 1.0 0.00 0.00 0.00 83 1012.3
20260901171513 79 244 0.0 1.0 0.00 0.00 0.00 86 1012.4
20260901170010 78 248 0.0 1.0 0.00 0.00 0.00 87 1012.5
20260901164506 76 247 0.0 1.0 0.00 0.00 0.00 89 1012.4
20260901163004 76 247 0.0 1.0 0.00 0.00 0.00 91 1012.5
20260901161502 75 259 0.0 0.0 0.00 0.00 0.00 90 1012.6
20260901160058 73 108 0.0 0.0 0.00 0.00 0.00 85 1012.7
20260901154557 72 252 0.0 0.0 0.00 0.00 0.00 83 1012.7
20260901153052 70 218 0.0 0.0 0.00 0.00 0.00 84 1012.7
20260901151551 70 218 0.0 0.0 0.00 0.00 0.00 85 1013.0
20260901150051 70 218 0.0 0.0 0.00 0.00 0.00 85 1013.0
20260901144549 70 150 0.0 0.0 0.00 0.06 0.00 84 1013.0
20260901143047 69 205 0.0 0.0 0.00 0.06 0.00 84 1012.8
20260901141547 69 203 0.0 0.0 0.00 0.06 0.00 83 1012.5
20260901140056 69 220 0.0 1.0 0.00 0.06 0.00 83 1012.5
20260901134549 69 243 0.0 0.0 0.00 0.23 0.00 83 1012.4
20260901133059 68 243 0.0 0.0 0.00 0.23 0.00 83 1012.6
20260901131550 68 243 0.0 0.0 0.00 0.23 0.00 83 1012.6
20260901130043 68 243 0.0 0.0 0.00 0.23 0.00 83 1012.6
20260901124542 68 243 0.0 0.0 0.00 0.30 0.00 83 1012.4
20260901123042 67 243 0.0 0.0 0.00 0.30 0.00 83 1012.4
20260901121546 67 243 0.0 0.0 0.00 0.30 0.00 84 1012.3
20260901120039 67 243 0.0 0.0 0.00 0.30 0.00 85 1012.1
20260901114537 67 243 0.0 0.0 0.00 0.30 0.00 86 1012.0
20260901113037 67 243 0.0 0.0 0.00 0.30 0.00 86 1011.9
20260901111531 68 243 0.0 0.0 0.00 0.30 0.00 84 1011.7
20260901110029 68 243 0.0 0.0 0.00 0.30 0.00 84 1011.7
20260901104537 69 243 0.0 0.0 0.00 0.33 0.00 85 1011.4
20260901103033 69 243 0.0 0.0 0.00 0.33 0.00 84 1011.4
20260901101528 69 230 0.0 1.0 0.00 0.33 0.00 85 1011.5
20260901100024 70 244 0.0 1.0 0.00 0.33 0.00 84 1011.5
20260901094525 70 245 0.0 3.0 0.00 0.33 0.00 84 1011.5
20260901093023 70 249 0.0 2.0 0.00 0.33 0.00 84 1011.4
20260901091523 70 241 0.0 1.0 0.00 0.33 0.00 84 1011.4
20260901090035 69 239 0.0 1.0 0.00 0.33 0.00 85 1011.3
20260901084519 70 233 0.0 1.0 0.00 0.33 0.00 86 1011.1
20260901083018 70 246 0.0 2.0 0.00 0.33 0.00 86 1011.1
20260901081517 70 244 0.0 3.0 0.00 0.33 0.00 87 1011.0
20260901080017 70 240 0.0 2.0 0.00 0.33 0.00 87 1011.0
20260901074514 70 256 1.0 3.0 0.00 0.33 0.00 86 1011.0
20260901073024 70 257 1.0 4.0 0.00 0.33 0.00 87 1010.9
20260901071515 70 250 0.0 4.0 0.00 0.33 0.00 88 1010.9
20260901070010 70 250 0.0 3.0 0.00 0.33 0.00 88 1010.8
20260901064510 70 254 1.0 5.0 0.00 0.33 0.00 89 1010.8
20260901063010 70 248 1.0 5.0 0.00 0.33 0.00 88 1010.7
20260901061509 70 255 1.0 2.0 0.00 0.33 0.00 89 1010.6
20260901060007 70 245 1.0 2.0 0.00 0.33 0.00 89 1010.7
20260901054506 71 249 1.0 3.0 0.00 0.33 0.00 90 1010.6
20260901053006 71 245 0.0 3.0 0.00 0.33 0.00 90 1010.7
20260901051504 71 240 0.0 3.0 0.00 0.33 0.00 91 1010.5
20260901050003 71 257 1.0 5.0 0.00 0.33 0.00 91 1010.5